Temp
14 13 13 12 12 13 13 14 14 14 15 15 15 16 17 17 18 20 21 23 24 23 23 24 24 25 25 26 27 27 27 27 27 28 27 25 23 23 23 22 22 22 22 22 22 22 22 22 22 22 22 21 21 21 22 22 22 22 22 22 22 21 22 22 21 21 21 21 20 21 20 21 21 21 21 21 21 21 21 20 20 20 20 20 20 20
14 12 12 13 13 13 13 14 14 14 15 15 15 15 16 16 17 19 21 22 24 23 22 24 24 24 25 25 26 27 27 26 27 27 27 26 23 22 23 23 22 22 22 22 21 21 22 21 21 21 21 21 21 21 21 21 22 22 22 22 22 21 21 22 21 21 21 21 21 21 20 21 21 21 21 21 21 21 21 20 20 20 20 20 20 20
12 11 12 13 14 14 14 14 14 14 14 14 14 14 14 15 17 18 20 21 23 23 22 23 23 23 25 25 26 27 27 27 27 26 27 27 25 23 22 22 22 22 22 22 21 21 21 21 21 21 21 21 21 21 21 21 22 22 22 22 21 21 21 21 21 21 21 21 21 21 21 20 20 20 20 21 21 20 20 20 20 20 20 20 20 20
11 11 13 14 14 14 14 14 14 14 14 14 14 14 14 15 16 17 19 20 22 23 23 23 23 23 25 25 25 26 27 27 27 26 27 27 26 24 22 22 22 22 21 21 21 21 21 20 20 20 20 20 20 20 20 21 21 21 21 21 21 21 21 21 21 21 21 21 21 21 21 20 20 20 20 20 20 20 20 20 20 20 20 20 20 20
11 12 14 14 14 14 13 14 14 13 13 13 14 14 14 16 16 17 18 20 20 21 23 24 22 22 24 24 25 25 26 27 27 27 26 26 26 25 23 22 23 22 22 21 21 21 21 20 20 20 20 20 20 20 20 21 21 21 21 21 21 21 21 21 21 21 21 21 21 21 20 20 20 19 19 19 19 19 19 20 20 20 20 20 20 20
12 13 14 14 14 14 13 13 14 13 13 13 14 15 15 16 16 17 18 18 18 19 22 23 21 21 23 23 24 25 25 25 26 27 26 26 26 25 23 22 22 22 22 22 21 21 21 20 20 20 20 20 20 20 20 21 21 21 21 21 21 21 21 21 21 21 21 21 20 20 19 19 19 18 18 18 19 19 19 20 20 20 19 19 19 20
13 14 14 13 13 13 13 13 14 14 13 13 14 16 16 16 16 17 17 17 17 18 21 22 20 20 22 22 24 25 25 25 26 26 26 26 26 25 23 22 22 22 22 22 21 21 21 20 20 20 20 20 20 20 20 21 21 21 21 21 21 21 21 21 21 21 21 21 20 20 19 19 18 17 17 18 19 19 19 20 19 19 19 19 19 19
13 14 13 13 13 13 13 13 14 15 13 13 15 16 16 16 16 16 17 17 17 18 19 20 21 20 21 22 24 24 25 25 25 26 26 27 26 25 24 22 22 23 22 22 21 21 21 20 20 20 20 20 20 20 20 20 21 21 21 21 21 21 21 21 21 21 21 20 20 20 19 18 18 18 18 18 19 19 19 19 19 19 18 18 18 18
14 14 13 14 13 13 13 14 15 15 14 14 16 16 16 16 17 17 17 16 17 18 17 18 20 20 20 22 24 24 24 24 25 25 26 26 27 26 24 22 23 23 22 22 21 21 21 20 20 20 20 20 20 20 20 20 21 21 21 21 20 20 20 21 20 20 20 20 20 20 19 18 18 18 19 19 19 19 19 18 18 18 18 18 18 18
13 14 14 14 13 13 14 14 15 15 14 15 17 16 16 16 16 17 17 17 17 16 16 18 19 19 20 21 23 23 23 24 25 25 26 26 26 27 25 22 23 23 22 22 21 21 21 20 20 20 20 20 20 20 20 20 20 21 21 20 20 20 20 20 20 20 20 20 20 19 18 18 18 18 18 18 18 18 18 18 17 17 17 17 17 17
12 14 14 14 14 14 14 15 15 15 15 16 16 16 15 16 16 16 17 18 17 15 16 18 19 19 19 21 22 23 23 25 25 25 25 25 26 27 25 22 23 23 22 22 22 21 21 20 20 20 20 20 20 20 20 20 20 20 20 20 20 20 20 20 20 20 20 19 19 19 19 18 18 18 18 17 17 17 17 17 17 17 17 17 17 17
12 12 13 14 15 15 14 14 14 15 15 15 15 15 15 15 15 15 16 17 16 15 17 18 19 19 18 20 22 24 25 26 26 26 26 25 25 26 24 23 23 23 22 22 21 21 20 20 20 19 19 19 19 19 19 20 20 20 20 19 20 20 20 20 20 20 19 19 19 19 19 19 18 18 18 17 17 16 17 17 17 17 17 17 17 17
11 12 13 14 15 15 14 13 13 14 14 14 14 14 13 13 14 14 15 16 15 16 18 19 19 19 19 21 23 24 25 26 26 26 27 26 26 26 24 23 23 23 22 22 21 21 20 20 19 19 19 19 19 19 19 19 20 19 19 19 19 19 20 20 20 19 19 19 19 19 19 19 19 19 18 17 17 17 17 17 17 17 17 16 16 17
10 11 12 13 13 14 14 12 12 12 13 13 13 13 13 12 13 13 14 15 16 17 19 20 20 19 20 22 25 25 25 26 27 27 27 27 27 26 24 23 23 23 22 22 21 20 20 20 19 19 19 19 19 19 19 19 19 19 19 19 19 19 19 20 20 19 19 19 19 19 19 19 19 18 18 18 17 17 17 17 17 17 17 16 16 16
9 10 11 12 13 14 14 13 13 13 13 13 14 14 14 13 13 14 15 16 16 17 19 19 19 19 20 23 25 26 25 26 27 27 28 27 27 26 24 23 23 22 22 22 21 20 20 20 19 19 19 19 19 19 19 19 19 19 19 19 19 19 19 19 19 19 18 19 19 19 19 19 19 19 18 17 17 17 17 17 17 17 16 16 16 16
9 9 12 13 13 14 13 14 14 14 12 13 14 14 14 15 15 15 16 17 18 18 19 19 19 21 22 25 26 26 26 27 27 27 27 27 26 25 23 23 23 22 22 21 21 20 20 20 19 19 19 19 19 19 19 19 19 19 19 19 19 19 19 19 19 18 18 19 19 19 19 19 19 18 18 17 17 17 17 17 17 17 16 16 16 16
9 9 12 13 13 14 14 14 14 13 13 13 14 13 15 17 16 15 16 18 20 18 19 20 20 21 23 24 26 26 26 27 26 26 27 26 25 24 23 23 22 22 22 21 20 20 20 20 19 19 19 19 19 19 19 19 19 19 19 18 19 19 19 19 19 18 18 19 19 19 19 18 18 18 17 17 17 16 16 16 16 16 16 16 16 16
10 9 11 12 12 13 14 14 14 14 14 14 13 14 16 17 17 16 15 17 19 18 19 21 21 21 21 22 24 25 26 26 26 26 26 25 24 23 22 22 22 22 22 21 21 20 20 20 19 19 19 19 19 19 19 19 19 19 18 18 18 18 18 18 18 18 18 18 19 18 18 18 17 17 17 17 16 16 16 16 16 16 15 15 15 15
11 9 11 12 12 13 14 13 13 14 15 14 14 16 16 14 15 16 15 16 18 18 19 21 21 21 21 22 24 24 25 26 25 25 26 25 24 23 23 22 22 22 21 21 20 20 20 20 19 19 19 19 19 19 19 18 18 18 18 18 18 18 18 18 18 18 18 18 19 18 18 17 17 17 16 16 16 16 16 15 15 15 15 15 15 15
10 9 10 11 11 11 13 12 12 13 15 15 15 15 15 13 14 15 16 17 18 19 20 20 21 21 22 24 25 25 25 26 25 25 25 25 24 23 23 22 22 21 21 21 20 20 20 20 19 19 19 19 19 18 18 18 18 18 18 18 18 18 18 18 18 18 18 18 18 18 17 17 16 16 16 16 16 15 15 15 14 14 14 15 15 15
10 9 9 10 10 10 12 12 12 13 14 14 14 14 14 14 15 15 17 18 18 19 20 20 20 21 23 26 26 26 26 26 25 25 25 24 24 23 23 22 22 21 21 21 20 20 20 19 19 19 19 19 18 18 18 18 18 18 18 18 18 18 18 18 17 18 18 18 17 17 17 16 16 16 16 16 16 15 15 14 14 14 14 14 14 14
9 8 9 10 10 10 12 14 14 14 15 15 14 14 14 14 15 15 16 18 20 20 20 21 20 21 25 26 25 26 27 26 25 25 25 24 24 23 23 23 22 21 21 21 20 20 20 19 19 19 18 18 18 18 18 18 18 18 18 18 18 17 18 17 17 17 18 17 17 17 16 16 16 16 16 16 15 15 14 14 14 14 14 14 14 14
9 9 9 10 11 11 12 13 15 16 16 16 15 15 15 15 15 15 16 18 20 20 21 21 20 22 27 27 26 26 27 26 25 25 25 24 23 23 23 22 22 21 21 21 20 20 19 19 19 18 18 18 18 18 18 18 18 18 18 18 17 17 17 17 17 17 17 17 17 16 16 15 16 16 16 16 15 14 14 14 14 14 14 14 14 14
9 9 9 10 11 11 11 12 15 16 16 15 15 15 15 16 16 17 17 18 18 18 20 21 20 23 27 26 25 26 26 25 25 25 25 24 23 23 23 22 22 21 21 21 20 20 19 19 18 18 18 18 18 18 17 18 18 17 18 17 17 17 17 17 17 17 17 17 17 16 16 15 15 15 15 15 15 14 14 14 14 14 14 14 14 13
10 9 10 10 10 10 11 12 13 14 15 14 15 15 16 16 17 17 18 18 18 18 20 21 20 23 26 26 25 25 24 24 25 25 25 24 22 22 22 22 21 21 21 20 20 19 19 19 18 18 18 18 18 17 17 17 17 17 17 17 17 17 17 17 17 17 17 16 16 16 16 15 15 15 15 15 15 14 14 13 13 13 14 14 14 13
11 10 10 11 11 10 11 12 12 13 14 14 15 15 16 16 16 17 17 17 17 19 20 21 21 23 26 25 25 24 24 25 25 25 25 23 22 22 22 22 21 21 20 20 19 19 19 18 18 18 18 18 18 17 17 17 17 17 17 17 17 17 17 17 17 17 16 16 16 16 15 15 15 15 15 15 15 14 14 13 13 13 14 14 14 13
11 11 11 11 11 11 12 12 13 14 14 14 15 16 16 16 17 17 17 17 18 18 20 20 20 22 24 24 24 24 24 25 24 24 24 22 22 22 22 21 21 21 20 20 19 19 19 18 18 18 18 18 18 18 17 17 17 17 17 17 17 17 17 17 17 16 16 16 16 15 15 15 15 15 15 15 15 14 14 13 13 13 13 14 14 13
13 12 12 12 12 13 13 13 13 14 15 15 16 16 16 16 17 17 17 18 19 18 19 20 20 20 22 23 23 23 23 24 24 24 23 22 22 22 22 21 21 21 20 20 19 19 19 18 18 18 18 18 18 18 17 17 17 17 17 17 17 17 17 17 17 16 16 16 15 15 15 15 15 15 15 15 14 14 13 13 13 13 13 13 13 13
13 13 13 13 13 13 14 14 14 15 16 16 16 16 16 17 17 17 17 18 19 18 19 21 20 20 22 22 22 23 23 23 23 23 23 22 22 22 21 21 21 20 20 20 19 19 19 18 18 18 18 18 18 17 17 17 17 17 17 17 17 17 17 17 16 16 16 16 15 15 15 15 15 15 15 15 14 13 13 13 13 13 13 13 13 13
13 13 13 13 13 14 14 15 15 16 16 16 16 16 17 17 17 17 17 18 18 18 19 20 20 21 22 22 22 22 22 22 23 23 22 22 21 21 21 21 20 20 20 20 19 19 19 19 18 18 18 18 17 17 17 17 17 17 17 17 17 17 17 17 16 16 16 15 15 15 15 15 15 15 14 14 14 13 13 13 13 13 13 13 13 13
14 14 13 13 13 14 14 14 15 16 16 17 17 17 17 18 18 18 19 19 18 19 19 20 21 22 22 22 21 20 21 22 22 22 22 22 21 21 21 20 20 20 20 20 19 19 19 19 18 18 18 18 17 17 18 18 17 17 17 17 17 17 17 17 16 16 16 15 15 15 14 14 14 14 14 14 13 13 12 13 13 13 13 13 13 13
14 13 13 13 13 15 15 14 15 17 17 17 18 18 17 18 18 19 19 19 19 19 20 20 20 21 22 22 21 20 21 22 22 22 22 21 21 21 21 20 20 20 20 20 19 19 19 18 18 18 18 17 17 17 18 18 18 18 17 17 17 17 17 16 16 16 15 15 15 14 14 14 14 14 13 13 13 12 12 12 13 13 13 13 13 13
13 13 13 12 13 15 14 13 15 17 17 17 18 18 18 19 19 19 19 19 19 19 20 20 20 21 22 21 21 21 22 22 22 22 22 21 21 21 21 21 20 20 20 20 19 19 19 18 18 18 18 17 17 17 18 18 18 18 18 17 17 17 17 16 16 16 15 15 15 14 14 14 14 13 13 13 13 12 12 12 12 13 13 13 13 13
13 13 12 12 13 14 13 13 15 17 16 17 18 19 20 20 19 19 20 21 20 19 19 21 21 22 22 21 21 21 21 21 21 22 22 22 21 21 21 21 21 20 20 20 20 19 19 18 18 18 18 18 18 18 18 18 18 18 18 17 17 17 16 16 16 15 15 15 14 14 14 14 14 14 13 13 13 12 12 12 12 13 13 13 13 13
13 13 12 11 12 13 13 14 16 16 16 18 18 19 20 20 19 20 21 21 21 19 19 20 21 21 21 20 20 20 19 19 21 21 22 22 22 22 21 21 21 21 20 20 19 19 19 18 18 17 17 18 18 18 18 18 18 18 18 17 17 16 16 16 16 15 15 14 14 14 14 14 14 14 13 13 13 12 12 12 13 13 13 13 13 13
14 13 12 12 12 13 13 14 15 16 17 18 19 20 20 20 19 20 20 21 21 20 20 20 21 21 21 20 20 20 19 20 21 21 21 22 22 22 21 21 21 20 20 20 20 19 19 18 18 17 17 17 18 18 18 18 18 18 17 17 17 16 16 16 15 15 15 14 14 14 14 14 14 13 13 13 13 13 12 13 13 13 13 13 13 13
14 13 13 13 13 13 13 13 14 16 17 19 20 21 21 20 20 20 20 20 22 21 20 20 20 21 20 20 21 21 21 22 22 21 21 22 22 22 21 21 21 21 21 20 20 19 19 18 18 17 17 17 18 18 18 18 18 17 17 17 17 16 16 16 15 15 15 14 14 14 14 14 14 13 13 13 13 13 13 13 13 13 13 13 13 13
14 14 14 13 13 13 13 14 15 16 17 19 20 20 19 19 19 19 19 20 22 21 20 20 21 21 21 20 21 23 23 22 22 22 21 21 22 22 22 21 21 21 21 20 19 19 18 18 18 17 17 17 18 18 18 18 17 17 17 17 16 16 16 16 15 15 15 14 14 14 14 14 14 14 13 13 13 13 13 13 13 13 13 13 13 13
14 14 13 13 13 13 13 14 14 16 17 18 17 17 17 16 17 18 19 20 21 21 20 20 22 22 21 20 22 24 24 23 22 22 21 20 21 22 22 22 21 21 20 19 19 18 18 18 17 17 17 17 17 18 18 18 17 17 17 16 16 16 16 15 15 15 15 14 14 14 14 14 14 14 14 13 13 13 13 13 13 13 13 13 14 13
13 13 12 13 13 13 13 13 14 15 17 16 15 15 15 15 17 19 19 19 21 21 20 20 22 23 21 20 22 24 23 23 22 20 18 18 19 20 20 21 21 21 20 19 19 18 17 17 17 17 17 17 17 17 17 17 17 17 16 16 16 16 16 15 15 15 15 15 14 14 14 14 14 14 14 14 13 13 13 13 13 13 13 13 13 13
13 13 13 13 13 13 13 13 14 16 16 15 14 14 15 16 19 20 19 20 21 20 19 20 22 22 20 20 20 20 19 18 18 17 16 17 18 18 18 18 19 20 19 18 18 18 17 17 17 17 17 17 17 17 17 17 17 17 16 16 16 16 16 16 15 15 15 15 14 14 14 14 15 15 14 14 13 13 13 13 13 13 13 13 13 13
13 13 13 13 13 13 13 14 14 16 15 14 13 15 16 18 20 19 17 18 18 18 19 21 21 20 19 18 17 16 15 15 16 16 16 17 17 17 17 16 16 17 17 17 17 17 17 17 17 17 17 17 17 17 17 17 17 16 16 16 16 16 16 16 16 15 15 15 14 14 14 14 14 14 14 14 13 13 13 13 13 13 13 13 13 13
12 13 13 13 13 14 14 14 14 15 15 14 14 15 16 17 17 15 14 15 17 18 20 21 20 19 18 17 15 15 15 15 15 15 15 15 16 17 17 16 16 15 15 15 16 17 17 17 17 17 17 17 17 17 17 17 16 16 16 16 16 16 16 16 15 15 15 14 14 14 14 14 14 14 14 13 13 13 13 13 13 13 13 13 13 13
12 13 13 13 13 14 14 14 14 14 14 13 13 14 14 14 14 13 13 14 17 18 19 19 19 18 17 17 16 15 15 15 15 15 15 15 15 16 15 15 15 15 14 14 14 15 15 16 16 16 16 17 17 17 17 17 16 16 16 16 16 16 16 15 15 15 15 14 14 14 14 14 14 14 13 13 13 13 13 13 12 12 12 12 12 12
13 13 12 12 12 13 13 14 14 14 13 13 13 13 14 14 14 13 13 14 15 17 18 18 17 17 16 16 16 16 16 15 15 15 15 15 15 15 15 15 15 14 14 14 14 14 14 15 15 15 15 16 17 17 17 17 16 16 16 16 16 16 16 15 15 15 14 14 14 14 14 14 13 13 13 13 13 13 13 12 12 12 12 12 12 12
13 13 12 12 12 13 14 14 14 14 14 14 14 14 14 14 14 14 14 14 14 15 17 18 17 17 16 16 15 15 15 14 14 14 14 14 14 14 15 15 15 14 14 15 15 15 15 15 15 14 14 15 16 16 16 17 16 16 16 16 16 16 16 15 15 14 14 14 14 14 14 13 13 13 13 13 13 13 13 13 12 12 12 12 12 11
13 13 12 12 13 13 14 14 14 14 14 14 14 14 14 14 14 14 15 15 13 14 16 17 16 16 16 15 15 14 14 14 14 14 14 14 14 15 15 15 14 14 15 15 15 15 14 14 14 14 14 15 16 16 16 16 16 16 16 16 16 16 15 15 15 14 14 14 13 13 13 13 13 13 13 13 13 13 13 13 12 12 12 12 11 11
13 13 13 13 13 13 14 14 14 14 14 14 14 13 14 14 14 14 15 15 14 14 15 16 16 15 15 15 14 14 14 14 14 14 14 14 14 14 14 14 14 14 14 14 14 14 14 14 15 15 15 15 15 16 16 16 16 16 16 16 15 15 15 15 14 14 14 13 13 13 13 13 13 12 12 13 13 12 12 12 12 12 12 12 12 11
13 12 13 13 13 13 14 14 14 14 15 15 14 14 14 13 14 14 15 15 15 14 15 16 16 15 15 15 15 15 15 14 14 14 14 14 14 14 14 14 14 14 14 14 15 15 15 15 15 15 15 15 15 16 16 15 15 15 15 15 15 15 15 14 14 14 13 13 13 13 13 12 12 12 12 12 12 12 12 12 12 13 13 12 12 12
12 12 13 12 12 12 13 14 13 14 14 14 14 14 14 13 13 14 15 15 14 14 15 15 15 15 15 15 15 15 15 14 14 14 14 14 14 14 14 14 13 14 14 15 15 15 16 15 16 15 15 15 16 16 16 16 15 15 15 15 15 15 15 14 14 14 13 13 13 12 12 12 12 12 12 12 12 12 11 12 12 12 12 12 12 12
13 13 13 12 11 12 13 13 13 13 13 14 14 14 14 14 13 14 14 14 14 14 14 15 15 15 15 15 14 14 14 14 14 14 14 14 14 13 14 14 14 14 15 15 15 15 15 15 16 15 15 15 16 15 15 15 15 15 15 15 15 15 15 15 14 13 13 13 13 12 12 12 12 12 12 11 11 11 11 11 11 11 11 11 11 11
Height
781 787 790 788 785 783 782 783 783 781 782 782 782 782 779 777 772 762 756 746 742 749 748 742 741 741 739 736 732 730 731 732 732 731 733 738 743 743 743 746 747 748 746 745 749 753 756 757 757 758 760 764 768 770 772 773 775 777 780 784 788 791 794 797 800 802 804 805 806 807 808 810 812 814 816 817 819 819 820 821 822 823 824 825 826 826
782 789 786 780 779 779 781 782 782 784 784 784 785 785 782 779 774 762 756 747 740 747 747 740 742 741 736 734 731 729 731 732 731 732 731 733 740 740 740 742 744 744 744 746 751 754 755 757 758 759 761 763 765 768 770 772 774 776 779 782 785 789 792 795 798 800 802 803 803 804 806 809 811 813 815 816 817 818 819 820 821 823 824 824 825 826
789 788 778 773 776 779 781 781 783 784 784 785 786 788 786 780 775 766 758 750 743 745 746 742 744 741 733 731 730 728 728 727 726 729 728 729 735 739 738 739 740 743 746 748 752 753 753 755 757 759 761 762 763 765 768 771 773 776 778 780 783 787 790 793 796 798 800 801 802 805 807 809 811 812 814 815 816 817 818 820 821 822 823 824 824 825
793 783 774 774 778 780 781 781 783 785 784 785 785 788 787 779 779 775 762 753 745 742 742 742 743 741 734 731 729 725 723 721 722 724 725 724 728 732 734 735 737 741 745 747 750 750 752 755 756 758 760 762 763 765 767 769 771 774 776 778 781 785 788 791 794 797 799 801 803 806 807 809 810 812 813 814 815 817 818 820 821 822 823 824 824 825
785 775 772 775 777 778 781 781 783 786 786 785 782 784 784 779 779 776 766 757 751 745 738 740 749 744 734 732 727 722 723 722 720 721 725 724 723 726 730 731 732 734 738 742 746 748 750 752 754 756 758 760 761 762 763 765 768 771 774 777 780 783 786 790 793 795 797 799 802 804 806 808 810 811 812 813 814 816 818 819 820 821 822 823 824 824
778 772 772 776 776 776 780 781 781 784 786 785 780 778 779 777 775 774 769 765 767 762 743 741 759 752 733 731 727 722 724 724 720 719 721 722 722 725 729 730 729 730 732 734 738 743 745 748 751 755 757 758 758 759 761 763 766 769 772 777 780 782 785 788 791 793 795 797 799 801 802 804 806 808 809 811 812 814 816 818 819 820 822 823 824 824
772 769 771 774 776 776 778 780 778 779 785 786 777 773 774 774 775 774 770 771 776 770 747 741 757 755 738 731 726 722 723 722 720 718 716 716 719 722 726 727 727 729 731 733 735 737 741 745 749 752 754 755 756 757 760 762 765 767 771 775 779 781 783 786 789 791 794 796 797 799 800 802 803 805 808 810 812 813 815 817 818 820 821 822 823 824
767 769 771 772 775 776 777 778 775 774 782 782 771 770 772 771 773 772 770 774 773 766 755 744 748 753 743 728 719 719 722 721 719 717 713 711 713 716 720 722 722 724 728 732 736 737 738 741 743 746 750 752 753 756 758 760 762 765 769 773 776 779 782 785 788 790 792 794 796 798 800 802 804 806 808 810 811 813 814 816 818 819 821 822 823 824
764 768 769 769 773 775 774 773 769 769 776 774 767 768 769 768 770 767 768 773 770 772 771 753 746 753 742 723 716 716 720 721 716 711 710 708 708 710 715 718 718 719 723 727 732 734 735 737 739 741 745 749 752 753 754 756 759 763 766 771 775 778 781 783 786 789 791 793 795 797 799 801 804 806 808 810 811 813 814 815 817 819 821 822 823 824
767 765 764 766 769 771 769 766 765 767 770 767 764 766 767 768 767 765 767 768 771 779 775 754 748 756 745 723 717 718 715 712 708 706 706 705 705 706 710 714 715 716 720 723 727 729 731 734 737 740 744 747 749 751 752 754 757 761 765 770 774 777 779 782 785 787 790 792 794 796 798 800 803 805 807 809 811 812 814 815 817 818 820 821 823 824
769 764 763 764 765 764 764 763 763 765 766 765 765 767 770 769 767 768 765 763 774 780 767 748 743 754 753 729 712 709 704 701 703 704 705 704 703 702 705 710 712 714 718 721 724 727 730 734 737 741 743 746 748 750 752 754 757 760 764 769 773 775 778 781 784 786 788 791 793 795 797 799 801 804 806 808 809 811 813 815 816 818 819 821 822 822
769 768 764 761 760 759 761 763 762 763 765 767 767 768 774 773 771 773 767 764 777 773 752 740 737 748 753 730 706 698 693 694 698 699 701 703 701 700 702 706 708 710 714 718 723 727 732 737 739 742 744 745 747 748 751 753 756 760 764 768 771 774 776 779 782 785 787 789 791 793 796 798 800 802 803 805 808 810 812 813 815 817 819 820 821 822
769 766 762 760 758 757 762 765 765 765 766 770 770 771 779 781 777 777 774 769 768 755 737 733 737 741 733 715 701 695 690 687 688 689 692 695 695 695 699 702 703 706 710 714 720 725 730 734 736 739 742 743 744 745 748 752 754 758 763 766 770 772 774 778 780 783 786 788 790 792 795 797 799 801 802 804 806 808 810 812 814 816 817 819 820 821
774 767 761 762 760 756 760 766 770 769 768 771 772 771 778 781 779 777 772 765 756 745 733 729 736 735 718 702 692 687 685 681 679 681 684 684 686 689 693 697 699 702 706 711 716 721 725 729 732 735 738 739 740 743 747 750 753 757 761 765 768 770 773 776 779 781 784 786 789 791 794 796 798 800 801 803 805 807 809 811 813 815 816 817 819 820
780 775 763 760 758 754 757 760 764 765 765 766 764 765 768 769 769 765 759 754 749 744 735 730 736 730 712 697 682 677 680 676 674 675 676 677 678 683 689 693 696 700 704 709 713 718 722 725 729 731 734 735 738 742 745 748 751 755 759 762 765 768 771 774 777 779 782 785 787 790 793 795 797 799 800 802 804 806 808 810 812 814 816 817 819 820
777 773 756 752 752 749 753 754 754 761 767 763 758 761 761 755 756 754 747 740 738 742 735 727 725 710 693 683 672 673 675 671 672 671 671 675 675 681 688 691 695 699 703 708 712 717 720 722 726 728 730 733 736 740 743 746 749 752 756 760 764 767 770 773 776 778 780 783 786 789 792 794 796 798 799 801 804 805 807 810 812 814 816 817 819 820
774 768 750 749 750 746 749 749 749 757 762 759 759 760 750 743 748 754 751 734 729 741 733 718 714 701 691 684 670 669 671 666 669 670 669 673 674 681 687 689 694 697 700 706 709 714 718 720 723 724 726 730 734 738 741 743 746 749 754 758 762 765 768 772 774 777 779 782 785 788 790 793 794 796 798 800 802 805 807 810 812 814 816 817 818 820
766 765 750 748 751 745 744 746 744 746 749 753 756 751 742 741 743 750 756 742 731 738 727 710 709 705 702 694 673 667 669 664 666 667 667 671 675 680 684 686 690 692 696 702 706 711 714 716 719 721 725 728 731 734 737 740 744 748 753 757 760 763 766 770 773 776 779 781 784 787 789 791 793 795 797 799 802 804 807 809 811 813 815 816 818 819
760 764 751 744 748 742 739 746 747 742 742 746 746 742 746 755 752 750 758 752 738 734 724 709 704 700 697 688 673 669 668 662 664 666 666 669 674 678 681 683 687 690 695 701 705 709 711 712 715 718 723 727 730 733 736 739 743 747 752 755 759 763 766 769 772 775 778 780 783 785 788 791 793 795 797 799 801 804 806 808 810 813 814 815 817 819
759 765 755 744 747 744 739 744 749 743 738 740 742 743 749 756 754 748 745 741 734 730 724 714 706 695 682 671 665 666 662 659 663 665 664 666 670 674 677 681 686 690 695 699 702 705 707 710 713 716 721 725 729 733 736 740 743 746 751 755 758 762 765 769 772 774 777 779 782 784 787 790 792 794 797 798 801 803 805 807 809 811 813 815 817 818
761 769 762 748 747 748 741 736 738 738 737 740 745 746 748 750 748 744 734 725 725 727 720 714 708 690 667 657 656 657 654 654 657 660 662 663 665 669 672 677 683 687 691 694 698 701 704 709 713 716 721 724 728 732 735 739 742 746 750 753 757 760 763 767 770 773 776 778 781 784 786 789 791 794 796 798 800 802 804 806 808 811 813 814 816 817
761 768 763 751 747 746 737 726 725 730 732 735 740 742 745 746 745 746 738 720 713 716 709 705 704 680 653 648 650 647 646 647 649 654 658 660 662 666 668 672 677 682 687 690 693 697 703 708 713 717 722 725 729 731 734 738 741 744 748 751 755 758 761 765 768 772 774 777 780 783 785 788 791 793 796 798 800 802 804 806 808 810 812 814 815 817
757 762 759 750 742 737 733 726 722 724 725 728 733 734 738 741 739 741 740 723 713 711 699 696 700 674 643 639 644 640 639 640 643 647 652 656 660 662 666 669 673 678 682 686 690 696 701 706 711 717 721 725 727 729 732 736 739 742 746 750 754 757 760 763 767 771 773 776 780 782 785 788 790 793 795 797 799 801 803 805 807 809 811 813 815 816
756 759 755 746 738 737 737 732 724 721 723 729 731 731 734 734 730 729 729 724 724 720 704 700 699 671 640 636 640 637 637 638 640 642 646 653 658 661 665 669 674 678 681 685 690 695 700 705 711 715 719 723 726 728 731 734 737 741 745 749 752 755 759 762 766 770 772 775 779 781 784 786 789 792 794 796 798 800 803 805 806 809 810 812 814 816
749 750 748 743 742 744 741 735 731 726 726 730 729 729 728 724 724 725 721 720 722 714 702 702 695 665 640 637 637 637 639 639 639 638 641 649 657 661 665 669 674 678 682 687 692 697 702 706 710 713 717 720 723 726 729 733 736 740 744 747 750 754 757 761 764 768 771 774 778 780 783 785 788 791 793 795 797 799 802 804 806 808 810 812 814 815
739 740 740 738 740 744 738 732 732 727 725 727 726 725 723 721 724 723 720 723 720 706 695 694 684 659 643 640 639 638 640 639 639 639 640 646 653 658 663 668 673 677 682 687 692 696 701 704 707 711 714 718 721 724 727 731 735 739 743 746 750 753 756 760 763 767 770 773 776 779 781 784 787 789 791 794 796 798 801 803 805 807 809 811 813 815
731 731 730 729 731 734 731 727 724 721 723 726 724 721 720 720 719 717 719 721 715 707 699 689 680 667 653 648 647 642 640 639 640 642 644 648 652 656 661 667 671 675 680 685 690 694 699 703 706 709 712 715 719 722 725 729 733 738 741 745 749 752 755 758 762 765 769 772 775 777 780 782 786 788 790 793 795 798 800 802 804 806 808 810 812 814
725 725 722 721 722 721 721 722 720 718 719 721 720 719 720 718 714 715 718 711 704 710 704 684 680 676 660 652 650 645 641 640 639 641 645 649 653 655 660 665 669 675 679 684 688 692 696 701 704 708 711 714 718 721 725 728 732 736 740 743 747 750 753 757 761 764 768 771 773 776 778 781 785 787 789 792 795 797 800 801 804 806 808 810 812 813
721 723 718 718 719 716 714 715 715 714 713 713 715 717 716 714 712 714 714 704 701 709 700 680 677 675 661 652 649 644 642 640 637 638 642 647 652 656 661 666 671 676 680 684 687 690 694 699 702 706 710 713 717 721 724 728 732 735 739 743 746 749 752 756 759 763 766 769 772 774 777 780 784 786 788 791 794 796 799 801 803 805 807 809 811 813
720 720 717 719 718 714 711 710 709 709 709 708 711 713 710 709 710 709 706 701 699 700 693 682 678 671 660 653 648 643 640 638 636 638 641 647 652 657 662 667 672 676 679 682 685 688 692 696 699 704 708 712 716 719 722 726 730 734 738 741 744 748 751 754 758 761 764 768 770 773 776 779 782 785 787 790 793 795 798 800 802 804 806 808 811 812
717 717 717 718 716 712 710 710 707 705 705 706 709 708 707 706 705 700 695 694 694 692 687 683 677 667 656 650 647 643 639 638 640 642 645 649 652 657 663 667 670 674 677 679 683 687 691 695 698 702 705 709 713 716 720 724 728 732 736 739 743 746 749 753 757 760 763 766 769 772 775 778 781 784 787 789 792 794 797 799 801 804 806 808 810 812
716 718 717 717 716 710 708 711 707 698 699 704 705 704 705 705 700 694 690 689 690 690 686 684 682 671 656 649 649 644 639 639 642 644 647 650 652 656 662 666 668 671 674 678 682 686 690 694 697 700 703 707 711 714 718 722 726 731 734 737 741 745 749 752 755 759 762 765 769 771 774 777 780 783 786 788 791 794 796 799 801 803 806 807 809 811
718 719 718 720 718 709 709 713 705 696 704 709 702 697 698 697 693 693 692 687 687 690 687 684 681 669 656 654 653 647 643 643 644 645 648 650 653 656 659 662 666 668 671 676 680 684 688 691 694 697 700 704 708 712 716 720 724 728 732 736 740 744 748 751 754 758 761 764 768 770 773 776 779 782 785 787 790 793 796 799 801 802 804 806 809 811
719 719 721 724 718 710 712 711 702 703 713 708 693 687 687 687 689 692 690 682 682 687 684 677 672 664 658 659 656 650 649 648 646 646 647 648 653 657 659 660 663 666 669 673 676 680 684 688 692 696 699 703 707 711 715 719 723 728 732 736 740 743 746 750 754 757 760 763 767 769 772 775 778 781 784 787 790 793 795 798 799 801 803 805 807 809
717 719 723 726 721 714 712 706 703 708 708 695 686 683 680 682 686 686 682 676 677 684 683 675 669 664 661 661 656 653 654 652 649 649 649 649 651 654 659 663 664 666 669 672 675 679 683 686 691 696 699 703 707 710 715 719 723 727 732 735 739 742 746 749 753 756 759 763 766 768 771 774 777 780 783 786 789 792 794 796 798 800 801 803 805 807
712 717 722 724 721 716 714 713 712 708 697 686 683 680 678 682 685 685 685 680 673 676 680 677 672 667 664 662 657 655 655 651 650 652 652 652 652 653 657 661 663 665 667 669 674 677 681 684 688 692 697 701 706 709 713 718 722 726 730 734 739 742 745 749 753 755 759 762 765 768 770 773 776 779 782 785 788 790 793 795 796 798 800 802 805 807
709 716 719 722 722 719 720 721 714 705 696 687 681 679 679 683 683 685 691 684 670 669 676 679 678 672 667 665 660 654 652 651 655 658 656 654 655 655 657 658 659 662 663 666 670 673 677 682 686 690 695 699 704 709 712 717 721 725 729 734 738 742 745 748 751 755 758 762 765 767 769 772 775 778 781 784 787 789 791 793 795 797 799 802 804 807
707 710 715 722 726 726 726 722 712 707 702 692 685 682 682 684 683 684 690 686 673 669 674 677 676 670 666 666 661 653 652 658 665 664 659 657 656 656 659 660 660 662 664 666 671 675 679 684 687 692 696 699 704 709 712 717 721 724 729 733 737 741 744 747 750 754 757 761 764 766 769 771 774 777 780 783 785 787 789 791 794 796 798 801 803 806
711 712 718 724 727 727 728 725 719 714 704 694 692 689 686 688 684 683 694 692 676 669 672 671 669 665 664 665 659 653 657 667 671 667 662 662 660 658 660 662 663 666 668 669 672 676 680 685 689 693 697 700 705 709 712 717 720 724 728 733 736 740 743 746 749 752 756 760 763 766 769 771 774 776 779 782 784 786 788 790 793 795 798 800 802 805
718 719 720 722 724 727 728 727 722 714 702 699 700 693 688 686 681 687 703 695 671 664 667 665 660 660 663 664 659 656 661 667 669 670 668 666 664 663 664 664 664 666 669 672 675 677 680 685 690 694 698 701 704 708 712 716 720 724 728 732 736 739 741 745 748 751 755 759 762 766 768 770 773 775 778 781 783 786 788 791 793 796 798 800 802 805
721 720 719 719 721 725 728 727 722 712 704 704 702 693 686 681 679 690 698 684 667 665 664 660 659 660 662 664 663 665 670 670 668 671 671 668 668 669 668 668 668 668 670 674 677 680 683 687 690 693 697 701 705 709 713 717 720 724 728 732 735 738 741 745 748 751 755 758 761 765 767 769 772 774 777 780 784 786 789 791 793 795 797 800 802 804
723 721 718 717 718 720 723 724 720 712 705 705 701 690 682 681 684 691 689 678 672 669 661 657 660 661 663 667 669 672 676 674 671 671 671 671 672 672 672 672 674 676 677 679 681 682 686 689 692 696 700 703 706 709 713 717 721 725 729 732 735 737 740 744 748 751 754 757 760 763 766 768 771 773 776 780 783 786 788 790 793 795 797 799 801 803
727 725 720 717 716 717 719 720 721 715 708 705 702 693 690 692 695 697 692 682 674 667 660 659 661 662 664 669 672 674 675 675 675 674 674 674 674 673 673 674 677 681 685 688 689 689 689 691 694 698 701 704 707 710 713 717 721 724 728 732 735 738 740 743 746 750 753 756 759 762 765 768 770 773 776 779 782 785 787 790 793 795 796 798 800 802
728 727 725 721 717 717 718 718 719 718 712 709 708 705 702 702 700 698 696 689 678 668 663 663 663 664 665 667 670 673 672 673 675 675 675 676 676 675 676 676 676 680 685 690 694 695 696 698 700 701 703 705 708 711 714 717 720 724 727 731 734 737 740 743 746 749 752 755 758 761 764 767 770 773 775 778 781 784 787 789 792 794 796 798 799 800
727 726 728 726 721 719 718 715 713 713 710 708 708 706 703 699 697 695 693 690 684 674 665 664 666 667 666 668 670 671 670 672 675 674 673 674 675 676 679 680 682 684 685 689 695 699 702 705 708 710 711 710 710 713 715 716 720 723 726 730 733 736 739 742 745 748 751 754 757 760 763 767 770 772 774 777 780 782 785 788 790 793 795 797 798 799
725 724 727 727 722 716 714 711 711 710 708 705 704 703 700 696 695 692 686 685 687 680 668 665 667 667 668 670 671 672 674 675 676 676 675 675 675 677 679 681 686 689 689 692 696 699 702 704 707 713 717 716 714 715 717 718 720 723 726 729 732 735 738 741 745 747 750 754 757 760 763 766 769 771 774 777 779 781 784 786 788 791 793 795 797 798
724 724 725 724 721 717 713 711 710 709 707 704 702 700 697 695 696 692 683 682 688 684 673 667 667 668 671 672 671 673 675 676 676 678 679 678 678 678 679 682 686 689 691 693 695 697 700 702 704 709 715 718 717 717 718 720 721 723 726 728 732 735 738 741 744 747 750 754 757 760 762 764 767 770 773 776 778 781 783 785 788 790 791 793 795 797
725 725 724 722 722 720 716 711 709 708 706 704 704 702 699 698 699 693 683 684 691 688 675 668 668 670 672 673 673 673 675 677 678 679 680 680 680 681 682 684 686 689 692 694 696 697 698 700 703 706 711 715 717 718 720 721 723 724 726 729 732 735 738 741 744 747 750 753 756 759 761 763 766 769 772 774 777 779 781 783 785 787 788 789 791 792
727 727 725 723 723 721 716 713 711 709 706 703 703 703 701 700 700 693 686 689 696 690 676 669 670 672 673 674 673 673 676 679 680 680 681 682 683 684 685 686 687 689 691 694 697 698 698 699 702 705 709 713 716 718 720 722 724 726 727 730 732 735 738 742 745 748 750 753 756 759 761 763 766 768 770 773 775 777 779 781 783 784 786 787 788 790
729 728 725 727 731 727 721 717 716 715 712 708 706 704 701 700 699 694 692 696 698 690 679 673 673 675 677 677 676 676 678 681 682 682 683 684 685 687 687 688 689 690 691 694 697 699 700 701 702 705 709 713 716 718 720 723 725 727 728 731 734 736 738 741 745 748 751 754 756 759 761 763 766 768 769 771 773 776 779 781 782 784 785 786 788 790
730 728 725 730 734 729 721 718 718 718 717 713 709 705 701 700 700 698 699 700 697 690 682 677 677 680 682 681 680 681 682 684 685 685 685 687 688 689 689 690 691 691 693 696 697 699 701 702 703 706 709 713 716 719 721 723 725 727 729 731 734 736 738 741 745 748 751 753 756 758 760 762 765 767 769 771 772 774 777 779 781 783 785 786 788 790
Wind_Speed
4 3 3 6 8 9 8 7 8 5 4 5 5 4 6 6 7 7 8 10 10 9 10 14 14 11 12 14 13 11 7 8 11 13 11 8 10 11 12 13 14 14 13 13 18 23 25 25 28 31 32 33 34 36 38 39 39 39 39 37 34 31 29 28 30 32 32 32 31 30 30 29 28 26 24 24 24 23 23 22 21 22 21 20 18 17
2 5 8 12 12 8 6 4 4 4 5 7 6 5 7 6 6 8 8 9 11 10 9 10 13 13 14 14 14 14 12 10 10 11 13 10 11 11 13 15 15 12 9 10 13 18 23 23 26 30 32 34 35 36 38 38 38 39 38 37 35 32 30 30 32 33 33 34 33 31 31 29 27 26 25 26 27 25 24 23 23 23 21 20 19 17
1 6 13 13 8 5 5 5 4 5 6 7 6 5 7 6 6 8 11 11 9 10 9 7 10 13 14 13 13 15 17 15 11 10 13 12 11 11 13 14 14 12 10 11 12 15 21 24 27 29 30 34 36 36 37 37 37 37 37 36 35 33 31 32 33 34 34 34 32 29 29 28 25 24 25 26 27 27 25 24 23 22 20 19 18 17
4 8 8 5 4 5 6 6 6 6 6 6 5 5 6 7 5 6 8 11 10 8 9 8 6 7 10 11 12 15 17 17 15 11 11 12 12 13 15 14 14 15 14 14 14 14 17 21 25 27 29 31 33 34 35 37 38 37 36 36 35 34 32 33 35 35 33 32 29 28 28 28 25 23 25 26 27 26 25 24 21 20 19 18 17 16
10 9 1 2 5 8 8 8 7 6 5 6 7 7 6 8 9 7 8 11 10 9 9 8 6 6 9 13 14 13 12 15 17 15 10 10 11 10 13 15 16 18 18 17 16 15 15 18 23 27 30 32 33 35 37 39 40 38 36 35 35 35 33 34 36 35 33 31 29 28 27 25 23 23 25 26 25 24 23 22 20 19 18 17 16 16
11 10 4 5 6 8 9 9 8 6 5 6 7 8 8 10 10 10 12 10 6 7 7 7 7 7 7 13 15 11 11 13 15 17 15 12 10 7 10 13 14 16 17 18 19 18 17 19 24 27 30 32 33 35 38 40 40 37 36 34 34 35 34 35 36 35 33 32 32 31 29 27 26 24 24 26 26 24 22 21 20 18 17 16 16 17
7 8 7 10 9 8 9 8 8 8 5 5 5 7 9 11 11 13 15 10 3 5 7 6 8 6 4 9 13 12 14 15 14 16 18 15 11 8 9 12 13 14 15 16 18 19 18 20 21 24 29 32 33 35 38 39 38 36 36 35 35 36 35 36 36 35 34 33 33 33 31 29 28 25 23 25 26 24 22 21 19 18 16 16 16 16
5 6 6 9 10 9 7 6 8 9 7 6 5 6 9 11 12 15 15 9 4 6 10 10 9 6 6 8 10 13 15 16 16 18 19 17 14 10 9 11 15 17 16 14 15 17 18 20 23 26 30 33 34 36 38 38 37 37 37 37 36 36 36 35 35 36 35 34 34 33 30 27 26 25 24 24 25 23 22 21 19 18 17 16 16 17
2 5 6 7 7 6 6 6 7 8 7 6 6 7 9 10 11 12 12 8 6 6 8 12 8 6 8 6 7 13 17 18 20 21 21 19 17 13 10 12 16 17 17 17 17 19 18 21 27 31 33 34 36 37 39 39 38 39 39 37 35 35 36 36 36 36 35 34 34 32 30 27 25 26 25 24 24 23 22 21 19 18 18 18 18 19
2 5 5 5 5 4 6 6 6 6 6 6 8 9 8 9 10 10 9 6 5 5 9 14 9 5 6 4 6 12 16 19 19 18 18 17 17 15 11 13 16 16 16 18 19 19 20 24 30 32 33 34 36 38 38 38 39 39 37 35 35 36 36 36 35 35 34 33 33 31 30 28 26 26 26 25 24 24 23 22 21 21 21 20 20 19
8 7 5 3 4 4 5 5 4 4 4 4 6 7 7 9 8 7 6 4 4 7 12 18 13 6 5 5 8 11 12 15 14 13 13 13 15 16 12 12 15 16 16 17 18 17 18 23 28 30 31 32 33 34 35 36 37 38 36 34 35 36 36 35 34 34 33 33 33 32 31 30 29 28 27 26 25 25 25 24 23 23 22 21 21 20
9 10 7 4 5 5 4 4 3 3 3 4 4 5 4 6 5 5 5 5 5 9 13 18 15 9 8 7 8 9 10 13 14 14 15 14 15 16 12 13 16 17 17 17 17 15 14 17 21 25 27 29 31 32 32 34 36 35 34 34 34 34 35 35 34 33 33 33 33 33 32 32 31 30 30 30 29 28 27 27 26 24 23 22 22 21
6 8 7 5 5 5 4 3 3 3 2 3 4 4 4 4 3 4 4 5 7 10 11 13 10 9 10 8 7 10 12 16 16 15 16 17 18 16 13 15 16 16 18 18 16 15 15 15 17 21 25 27 29 31 32 34 35 34 33 34 34 34 34 35 34 32 32 33 33 33 33 32 32 32 32 32 31 30 30 29 28 27 25 24 23 22
3 5 6 7 4 4 5 4 3 3 4 6 5 5 6 5 4 6 5 6 9 9 10 11 7 7 8 6 9 13 14 17 18 17 17 19 20 16 14 16 16 17 18 17 16 16 16 16 17 21 25 27 28 31 33 34 35 33 32 34 34 33 33 35 34 32 31 32 33 33 33 32 32 32 32 32 32 32 31 30 30 29 27 25 24 22
4 5 5 7 4 6 8 8 6 4 4 6 7 6 7 6 4 5 6 7 6 4 9 12 7 5 5 5 10 13 12 14 16 18 18 19 18 15 13 16 17 17 17 16 16 17 17 18 20 23 26 27 29 31 32 33 34 33 32 33 33 32 33 34 34 31 31 33 33 33 32 32 33 32 32 32 32 32 31 30 30 28 26 24 23 22
5 6 6 8 7 8 10 10 9 6 4 5 5 5 8 8 6 3 4 5 4 2 7 7 5 5 5 5 9 13 14 16 17 18 19 18 15 12 12 15 16 16 16 15 16 17 17 19 21 24 26 27 29 31 32 33 34 34 32 32 32 32 33 33 32 31 31 33 33 32 32 31 32 32 32 31 31 31 31 30 29 28 25 24 22 21
4 5 4 6 6 8 10 11 12 10 6 4 5 8 9 9 7 4 5 3 5 5 6 4 5 6 5 6 9 16 19 20 19 18 19 17 13 13 13 14 15 16 17 17 16 17 17 18 21 25 27 27 29 30 32 33 36 35 33 32 32 31 32 32 31 31 31 33 32 32 31 31 32 32 32 31 31 30 29 28 27 27 25 23 22 21
4 5 4 6 8 10 9 11 14 15 10 5 5 8 8 8 8 4 4 4 4 6 5 4 6 6 5 6 7 15 21 21 19 17 17 15 14 15 15 15 17 19 19 19 18 18 18 18 20 24 26 29 32 34 35 36 35 34 33 33 32 31 32 31 30 31 31 32 32 32 31 31 31 32 31 31 30 30 28 27 26 25 25 24 22 21
4 4 6 7 10 11 8 8 11 15 16 12 6 4 2 4 6 4 4 6 4 5 4 4 6 7 7 6 6 13 18 18 16 15 15 14 15 16 16 17 19 19 17 17 17 16 17 17 19 24 26 27 31 33 34 35 33 32 32 33 32 30 30 30 29 30 31 31 32 32 31 31 30 30 30 29 30 29 28 27 25 25 26 25 23 22
3 2 3 3 4 6 5 7 7 10 15 16 11 5 3 3 3 4 6 7 5 4 3 5 5 5 7 7 9 13 15 14 13 11 13 15 16 17 16 16 17 17 16 16 16 16 17 17 19 26 28 29 31 31 31 31 31 31 32 32 31 30 29 30 30 31 31 31 32 31 30 30 29 29 29 29 29 28 27 26 25 26 27 26 23 22
3 1 4 1 1 3 3 7 9 8 9 10 9 7 5 4 3 3 4 6 5 3 3 5 5 5 5 6 11 15 15 15 13 12 12 13 16 18 18 17 17 17 17 17 16 16 16 16 19 25 27 28 30 30 29 30 30 30 31 32 32 31 31 31 31 32 32 30 30 30 30 29 29 29 29 29 28 26 26 25 25 26 28 26 24 23
3 3 5 4 1 2 3 5 10 9 7 7 7 8 6 5 4 3 4 4 5 5 5 5 4 7 5 5 9 14 15 14 13 14 12 13 18 19 18 19 19 18 18 18 17 16 15 14 17 21 22 24 26 27 29 30 29 30 31 32 32 32 32 32 31 32 32 30 29 30 29 29 29 29 29 28 26 25 25 24 25 27 28 27 25 23
4 2 5 7 4 3 3 4 8 9 7 6 6 6 5 5 5 4 4 3 3 5 4 2 3 7 6 7 9 11 12 12 12 15 14 13 16 18 18 19 19 18 19 18 17 16 15 15 18 21 22 23 25 27 28 29 29 30 31 32 32 32 32 32 32 32 32 31 30 29 28 28 29 29 28 28 26 25 25 25 26 28 29 27 25 23
4 2 4 6 3 2 4 5 4 5 4 2 5 5 5 6 6 5 4 3 4 6 6 3 3 7 6 5 7 9 9 10 11 14 16 14 13 16 18 18 17 17 17 17 15 14 14 14 17 18 19 21 23 25 27 27 28 29 30 32 32 32 32 32 32 32 32 31 30 29 28 29 29 30 29 28 26 25 25 27 28 29 29 28 26 24
4 3 2 2 2 2 3 4 4 4 3 2 4 6 7 8 7 6 5 3 4 6 5 4 5 7 6 5 3 5 7 10 12 14 16 15 14 15 17 16 16 17 17 16 15 15 15 15 14 14 16 21 23 24 26 26 27 28 30 32 32 32 32 32 32 33 32 31 30 29 29 29 29 30 29 28 26 25 26 28 29 30 29 28 26 24
3 3 2 1 2 3 3 3 2 3 4 3 4 8 10 8 7 6 4 3 4 5 4 5 6 7 6 7 4 4 9 10 11 12 13 15 16 17 16 15 16 16 17 18 17 16 15 15 14 14 17 20 22 24 25 26 27 28 29 31 31 32 32 32 32 32 31 30 30 30 30 30 30 31 30 28 26 26 28 30 30 30 29 28 27 25
1 2 3 3 3 3 3 3 3 1 4 5 7 8 7 7 8 7 4 4 5 5 6 6 5 7 8 7 6 4 9 11 10 10 11 13 17 18 17 17 17 16 17 17 17 16 16 15 15 16 17 20 23 25 26 27 28 28 29 29 30 32 33 32 32 32 31 31 31 30 31 32 32 32 30 28 26 27 29 31 31 30 29 28 27 25
1 1 3 3 2 3 5 6 6 4 4 5 5 3 4 7 8 7 6 6 4 3 6 7 4 4 7 6 5 5 6 10 12 12 13 14 16 17 17 19 19 18 17 17 16 17 18 16 16 15 15 19 23 24 25 26 27 29 30 30 30 32 33 33 32 32 32 32 31 31 32 33 32 31 29 27 27 27 30 31 31 30 29 28 26 25
2 1 3 2 3 5 6 6 6 6 5 5 4 2 4 6 7 7 8 8 5 4 7 8 7 4 7 7 6 6 7 8 12 14 15 15 16 17 18 19 19 18 18 18 18 19 18 17 16 15 15 18 22 23 24 25 26 28 29 29 30 32 33 33 32 33 32 32 31 31 32 33 31 30 29 28 27 29 30 32 31 30 29 28 27 26
2 1 2 2 4 6 4 4 5 5 4 4 4 4 5 6 7 7 7 8 8 7 9 9 8 6 7 7 8 8 6 6 9 11 14 16 17 18 19 20 19 18 19 19 18 18 17 17 17 16 15 17 21 24 24 25 27 28 29 29 30 31 33 33 32 32 32 31 31 32 32 32 31 30 29 28 28 30 31 32 32 31 30 28 27 26
1 1 2 1 3 4 3 2 3 5 4 3 2 5 4 5 6 4 5 7 6 8 10 8 7 7 6 6 8 6 3 7 9 11 14 16 17 19 19 20 20 20 19 19 18 17 16 16 16 16 16 18 23 26 25 26 27 28 29 29 31 32 33 33 32 32 32 31 31 32 33 32 31 30 30 30 29 31 32 32 32 31 30 29 28 27
1 1 2 3 3 3 2 4 3 3 6 4 3 5 3 4 4 3 4 4 2 5 8 5 4 5 6 8 8 3 7 12 13 14 14 14 17 20 20 20 20 20 20 18 17 17 17 16 16 17 17 20 25 27 26 27 28 28 29 30 31 33 33 32 31 31 32 31 31 32 33 32 31 31 30 30 30 31 32 31 31 31 31 30 29 28
1 1 1 3 2 3 4 6 4 4 7 3 5 5 6 5 4 4 6 5 4 5 3 0 2 6 7 7 6 5 7 10 11 11 11 14 16 18 20 21 20 20 20 19 18 17 17 16 16 17 20 23 27 29 29 30 29 29 30 31 32 33 32 31 31 31 31 31 32 33 33 33 32 31 31 30 30 31 32 31 31 31 31 30 29 29
1 3 1 1 1 3 7 7 4 5 3 4 6 5 6 4 4 4 7 8 5 4 3 4 4 6 8 7 3 5 6 5 5 4 6 11 15 16 17 19 20 19 18 18 18 18 17 15 15 18 23 27 29 30 30 30 29 29 29 31 32 33 32 30 30 31 31 32 32 33 33 33 32 31 30 30 30 31 32 32 32 32 32 31 30 30
2 3 2 1 1 2 6 5 4 3 4 6 5 2 4 4 6 5 7 9 5 3 3 4 5 6 7 7 3 5 5 5 7 7 5 6 12 15 16 15 15 17 16 16 16 16 15 14 14 17 22 26 28 30 29 28 28 29 29 31 32 32 32 30 29 29 30 30 31 33 33 33 32 31 30 30 31 31 32 32 33 33 33 32 31 31
4 3 2 1 1 2 4 4 2 4 7 6 6 3 2 3 3 1 6 9 7 4 1 1 7 8 7 7 5 2 4 5 8 7 6 5 7 12 15 15 15 16 16 16 15 15 16 18 20 22 24 27 29 29 28 27 29 30 29 30 31 31 31 31 29 29 29 29 30 32 33 33 32 31 31 31 31 31 31 32 33 34 33 32 32 31
6 4 2 2 2 2 3 3 2 3 5 5 3 2 1 2 2 4 1 7 8 4 2 2 8 10 6 5 5 2 3 7 8 6 5 5 6 7 10 13 16 17 17 17 18 19 22 24 26 27 28 29 30 29 27 27 29 30 29 29 30 30 30 30 29 29 30 29 30 32 34 34 33 31 31 31 31 31 31 32 34 34 34 33 32 31
4 3 3 2 1 2 2 3 2 2 2 3 5 5 3 3 4 3 6 5 7 6 6 7 10 8 5 5 3 3 5 7 6 2 5 2 4 7 7 7 9 11 12 13 14 16 20 24 26 27 29 29 29 28 28 29 30 30 29 28 30 30 30 29 29 30 31 30 32 33 33 34 33 32 31 31 32 32 32 33 34 34 34 33 33 32
3 2 4 4 1 2 2 1 0 1 3 4 7 11 8 8 9 1 5 4 6 7 8 9 11 8 6 6 4 3 5 5 3 4 6 6 3 3 7 8 8 7 9 13 16 18 22 25 27 28 29 29 28 27 29 30 31 30 28 28 29 30 28 28 29 32 32 32 33 34 34 33 33 33 33 33 33 33 33 32 33 33 33 33 32 32
4 3 1 2 2 3 3 1 1 2 4 5 10 14 12 9 5 3 4 5 6 6 7 7 9 8 6 6 3 5 5 4 4 5 5 6 6 5 1 4 8 10 11 13 17 21 26 29 28 27 27 28 29 29 31 32 31 28 27 27 28 28 27 28 31 33 34 34 34 34 33 33 33 33 33 33 32 31 30 30 30 31 31 31 31 31
2 2 2 2 3 4 4 1 2 3 3 7 13 16 13 6 2 5 5 6 6 8 7 3 5 3 2 1 3 4 3 2 3 1 5 8 9 9 10 7 1 6 10 14 19 24 26 28 29 29 29 29 30 31 32 32 29 26 26 26 26 26 28 30 32 33 34 34 34 33 33 33 33 33 33 33 31 28 28 29 30 31 31 30 30 30
2 2 2 1 1 2 4 2 2 3 2 8 15 15 8 2 3 4 5 7 7 7 2 5 5 4 5 6 5 6 5 4 5 6 9 11 10 9 11 12 11 8 7 12 20 25 25 24 25 26 26 29 31 32 32 31 27 25 25 23 22 25 30 32 33 33 34 33 33 33 33 33 33 32 32 31 30 28 27 28 29 31 31 30 30 29
2 2 3 2 2 0 2 3 2 2 3 9 14 10 6 3 2 5 7 9 9 5 2 6 5 4 7 7 5 6 8 8 8 9 10 10 9 9 10 10 10 11 12 11 11 14 18 21 23 25 26 28 30 32 32 30 27 26 25 22 22 25 30 33 33 33 33 32 31 32 32 32 32 31 31 30 30 28 27 27 28 29 29 29 29 28
1 1 1 2 2 1 1 1 1 3 6 7 6 4 4 5 6 5 5 7 8 6 4 4 4 4 7 8 6 6 8 9 9 10 11 9 9 9 8 9 11 13 14 16 18 17 14 12 13 17 23 27 30 30 32 31 28 26 25 24 25 28 30 31 33 32 31 31 31 31 31 31 31 30 30 30 29 28 26 27 27 27 28 29 29 29
1 2 3 2 2 1 2 3 3 4 6 5 2 3 5 7 7 6 4 5 7 7 3 3 4 4 5 7 6 5 7 8 7 8 10 10 10 10 10 10 11 13 15 18 19 18 16 13 12 9 12 21 27 29 30 32 31 28 26 26 29 31 32 31 31 31 30 30 30 31 31 30 29 28 28 29 30 28 27 27 27 27 27 28 29 29
2 2 3 1 3 3 2 3 3 4 6 5 3 4 4 6 7 7 6 7 9 10 4 3 5 5 4 5 7 7 6 7 7 7 7 9 10 12 13 12 11 12 15 17 19 21 21 20 18 11 7 13 21 24 26 31 33 30 28 29 31 31 32 32 31 30 29 29 29 30 29 28 27 26 27 28 29 29 28 28 29 29 29 29 29 28
2 1 2 1 3 3 2 3 4 5 6 6 6 6 5 7 8 9 6 9 11 12 4 4 5 5 5 6 8 9 7 7 8 7 5 7 9 10 11 12 11 12 14 16 19 23 22 20 19 16 12 13 17 21 23 27 30 29 30 31 32 31 31 31 31 29 28 27 27 27 27 27 27 26 26 27 28 28 28 29 29 30 31 31 30 28
3 3 3 2 2 2 3 5 7 7 6 5 5 6 6 7 8 9 7 10 12 13 4 6 6 5 7 7 7 9 7 6 8 8 6 6 6 6 8 10 10 11 12 15 20 23 22 19 18 18 17 16 17 20 22 23 25 28 31 31 31 31 31 30 29 28 27 26 26 25 26 27 28 27 27 27 28 29 30 30 31 32 33 34 34 33
3 4 3 2 3 3 3 5 7 6 5 6 7 7 6 5 6 7 9 9 10 11 6 10 9 6 7 7 7 9 9 6 5 7 7 6 5 5 6 8 10 12 13 15 18 19 20 19 19 19 19 19 20 21 20 20 22 27 30 30 30 31 31 28 27 26 26 25 25 24 24 26 27 27 28 28 28 28 30 31 33 34 34 35 35 35
3 3 2 3 3 2 3 4 4 3 3 6 8 8 9 7 6 8 9 6 8 8 8 11 12 10 8 7 6 8 9 6 5 6 7 5 5 5 6 7 9 11 13 15 17 17 19 21 22 22 21 20 22 22 21 20 22 25 27 28 29 30 30 28 26 24 23 23 23 23 23 25 26 26 27 28 28 27 27 28 30 31 32 33 33 33
3 3 2 3 1 4 5 6 5 2 1 5 8 9 9 9 8 7 5 4 4 6 9 11 13 11 9 8 7 8 8 7 5 6 7 5 5 6 7 7 8 10 14 17 17 16 18 21 23 24 23 23 23 23 23 23 23 24 26 28 28 29 29 28 26 23 22 23 23 24 25 25 26 26 26 27 27 27 26 25 25 26 27 28 28 29
Wind_Direction
153 172 223 215 224 218 214 217 226 256 315 304 296 268 260 259 253 244 244 246 240 244 237 233 240 232 225 228 234 246 236 228 239 239 232 193 171 181 177 177 184 187 191 179 174 180 181 174 168 166 166 164 165 168 168 169 171 171 173 177 180 181 180 178 178 180 180 179 182 185 188 191 192 192 192 194 196 200 204 206 205 203 206 210 211 213
145 181 223 220 222 220 219 237 251 268 276 273 279 281 275 265 265 266 261 253 238 243 246 229 233 232 228 226 225 235 241 235 226 229 236 209 177 183 183 180 184 183 176 164 167 177 175 167 164 164 164 164 165 168 171 171 172 173 176 180 181 180 179 178 180 181 182 183 183 185 186 188 189 192 195 196 197 201 204 204 203 203 206 210 211 212
254 227 235 226 215 212 226 241 246 253 251 252 255 265 270 265 281 285 277 272 249 239 248 231 227 232 228 226 222 224 231 237 224 211 230 224 190 185 189 183 178 171 163 164 171 175 172 165 161 164 167 168 168 169 171 172 172 175 179 181 181 181 180 180 182 183 185 187 187 187 187 187 187 190 198 200 197 198 198 198 199 202 206 210 210 210
238 244 244 225 186 202 229 233 230 248 251 244 240 238 253 260 267 273 272 276 269 254 250 241 235 236 229 227 225 221 223 233 233 215 216 227 214 194 189 184 172 168 168 170 174 175 169 162 161 166 169 169 167 168 170 172 174 177 180 182 180 180 181 182 183 185 187 187 187 190 190 188 188 189 193 195 192 190 191 191 196 202 208 209 208 208
239 253 258 142 190 205 224 230 220 232 248 244 241 236 246 253 251 261 280 287 296 284 251 239 252 246 221 220 223 222 220 229 234 227 215 224 229 198 179 184 177 170 171 171 172 174 168 165 168 170 170 170 169 171 173 173 175 178 181 182 180 179 181 183 185 187 186 184 183 185 184 184 185 184 184 182 179 181 185 191 196 203 208 208 208 207
242 252 246 229 226 213 219 228 219 214 241 251 241 238 245 254 257 265 272 278 304 292 252 220 234 250 230 220 221 215 215 224 231 233 226 220 225 192 166 182 182 174 174 172 172 173 172 171 170 170 172 172 173 174 175 175 177 178 179 181 180 179 181 184 186 187 186 184 183 183 179 178 178 177 177 177 176 179 185 193 199 202 205 204 203 202
242 238 226 231 236 230 223 226 221 211 228 250 237 238 245 250 255 258 261 262 254 273 285 258 236 257 267 227 217 209 213 220 224 233 233 223 217 194 170 177 177 178 179 175 174 173 172 171 169 172 175 176 175 176 175 175 177 177 177 181 181 181 183 185 187 188 188 186 186 187 185 183 180 174 175 179 181 184 188 194 198 197 195 195 196 192
222 220 219 230 230 233 230 226 217 205 220 244 234 239 246 245 245 248 254 255 256 291 307 290 261 252 251 226 208 203 212 221 220 225 231 228 220 201 181 179 178 180 178 174 176 176 175 174 173 175 177 178 177 175 173 174 176 176 178 182 183 183 184 186 188 189 190 189 188 189 187 185 182 178 177 180 182 185 188 189 190 188 184 186 188 182
164 196 212 228 225 226 228 221 206 200 219 235 230 239 250 253 251 251 253 251 263 295 292 278 270 246 241 229 198 200 209 218 217 217 221 224 224 211 190 185 182 179 175 172 177 181 180 179 177 176 176 178 177 174 173 174 175 176 179 182 182 183 185 187 190 190 191 192 191 190 187 183 181 182 182 180 180 181 183 182 180 178 176 176 177 175
250 222 218 214 212 214 224 224 203 200 226 232 226 238 259 269 266 261 253 242 246 254 256 259 256 242 253 235 195 204 209 213 213 214 215 215 220 217 198 184 183 178 174 176 180 183 183 180 178 176 175 177 176 174 173 173 174 176 179 181 181 184 187 189 191 191 192 194 194 191 187 183 180 181 180 177 176 177 177 175 172 171 171 171 172 175
263 276 278 239 225 211 207 226 218 211 251 266 237 234 254 263 267 274 257 213 221 241 247 252 245 237 266 241 207 209 207 207 207 209 214 214 218 218 199 180 182 178 175 178 181 183 180 176 175 174 174 175 173 172 171 171 173 176 178 180 182 185 188 189 191 193 193 194 195 193 189 185 182 180 177 173 172 172 172 171 168 169 171 173 176 179
252 263 266 256 252 228 199 217 240 238 271 290 251 215 233 253 255 269 246 183 207 238 239 245 244 236 244 240 227 221 201 198 204 204 205 209 217 217 196 181 183 177 174 178 178 175 170 169 172 174 175 173 169 169 170 171 173 176 179 181 183 186 188 189 191 194 195 193 194 193 191 189 186 183 180 175 174 173 173 172 168 169 171 174 178 182
238 245 249 255 255 224 199 210 245 263 250 257 251 211 206 229 225 229 217 191 219 237 238 238 239 238 243 240 231 227 205 197 201 203 202 205 213 213 191 182 182 176 174 175 172 169 167 169 172 173 174 171 168 169 171 172 174 176 179 182 184 186 189 190 192 195 195 193 193 193 192 191 189 187 185 180 178 176 177 175 171 171 172 174 178 181
263 277 254 245 244 195 190 196 206 229 218 220 227 210 202 201 203 204 195 211 223 232 243 239 231 247 261 244 211 211 207 199 197 197 203 208 211 205 187 181 180 175 174 173 170 170 170 172 173 172 173 171 170 171 172 174 175 176 180 183 185 186 189 191 193 196 195 192 193 193 192 192 190 188 186 184 181 180 180 179 177 176 176 176 178 181
237 280 237 220 212 174 193 206 197 201 220 227 222 219 222 217 218 203 191 218 225 224 240 233 221 228 241 225 205 200 200 200 197 196 202 211 210 197 182 179 176 174 172 170 169 171 171 172 172 172 173 172 171 172 174 176 177 178 182 184 185 186 188 191 193 194 192 191 192 192 192 192 191 191 188 186 185 183 183 182 181 181 181 181 181 182
211 249 232 220 211 182 196 207 197 201 233 238 227 228 230 222 233 253 227 221 182 188 241 224 211 232 236 231 205 193 196 199 200 199 202 210 205 183 176 177 173 171 169 168 170 171 172 171 171 173 174 173 172 173 175 177 178 181 183 184 186 186 187 190 192 192 190 190 190 190 191 191 191 191 189 186 185 185 186 185 184 185 186 186 185 184
205 246 214 207 228 208 205 206 192 192 213 219 209 226 234 227 232 259 274 248 153 185 247 222 215 249 262 257 210 193 197 198 199 201 202 206 189 168 174 175 170 170 169 169 170 169 170 171 174 176 174 172 172 174 178 180 181 182 182 182 184 186 188 189 189 188 188 188 189 189 191 191 191 190 188 187 186 186 187 187 188 189 190 190 187 185
204 257 231 206 244 237 218 215 203 196 205 205 193 217 234 237 237 244 283 285 179 198 254 230 210 216 227 259 228 197 198 199 200 201 202 199 176 167 176 174 170 172 170 169 169 169 170 173 176 177 175 174 174 177 180 181 181 181 181 181 182 184 186 187 185 184 185 186 187 189 190 190 189 188 187 187 186 186 187 188 190 192 192 191 188 185
182 260 258 212 238 244 213 208 209 197 203 213 218 219 185 208 234 228 245 268 232 212 264 255 218 203 208 232 226 205 203 201 202 202 200 191 174 171 177 174 171 169 166 166 167 169 173 176 176 174 174 175 177 179 180 180 178 178 180 182 181 182 183 182 181 181 183 186 189 189 189 189 188 187 185 185 185 185 187 189 191 192 191 189 187 187
151 247 269 183 240 258 195 188 206 193 197 211 228 236 182 193 235 210 216 247 243 210 239 254 233 221 222 212 201 206 209 205 200 199 200 189 176 175 175 171 169 165 165 167 168 173 176 175 175 174 173 175 177 179 179 176 176 177 179 180 179 180 179 178 179 179 180 184 187 187 188 188 188 186 184 185 186 187 189 192 192 191 191 188 187 188
114 207 256 224 300 275 197 189 197 193 191 198 214 221 211 221 237 228 234 242 242 225 214 228 241 248 239 206 194 198 205 210 198 188 197 185 173 176 174 167 167 166 168 169 170 174 173 172 175 175 174 174 174 175 175 175 176 177 178 179 179 178 177 177 179 179 179 181 183 184 185 186 187 186 186 187 189 190 190 192 192 191 190 189 188 189
152 191 242 263 277 245 235 193 182 190 196 187 199 212 211 217 221 240 268 251 235 239 212 192 236 262 240 198 196 197 199 206 191 178 188 181 172 176 173 168 167 167 168 170 171 170 167 169 172 170 169 169 170 171 173 175 176 177 178 179 179 178 177 177 178 179 178 178 179 181 182 183 184 186 187 187 189 190 190 191 191 190 189 188 188 189
170 194 244 256 245 208 246 235 185 180 181 186 208 213 210 229 223 217 254 293 288 271 256 189 244 270 246 195 196 203 199 196 184 175 177 176 172 172 170 168 167 165 167 169 168 166 165 168 167 164 165 168 171 172 173 175 177 178 179 179 179 178 177 178 178 178 178 178 179 179 178 179 182 184 186 187 188 190 190 190 190 189 189 188 187 187
171 213 242 256 264 189 224 237 189 146 126 173 218 214 214 233 237 235 256 297 312 290 281 274 264 271 267 225 205 210 201 185 180 177 172 167 167 167 166 165 162 161 164 165 164 164 165 165 163 162 165 169 172 173 173 176 178 178 178 178 179 179 177 176 176 177 178 179 180 179 177 176 179 182 183 184 186 189 190 189 187 187 188 187 185 184
183 208 222 268 18 73 175 179 152 138 143 182 215 228 235 242 257 275 275 262 262 257 241 236 252 254 269 294 257 201 183 181 187 183 169 159 159 162 162 161 158 159 163 164 163 163 163 163 163 164 168 171 172 172 172 175 176 177 178 179 179 177 174 173 174 176 178 179 180 180 178 177 178 180 181 183 185 188 189 187 185 185 186 185 184 183
187 204 197 156 90 90 137 156 151 159 168 185 221 231 238 250 257 265 278 265 259 271 250 227 247 264 290 326 310 197 170 179 192 183 163 154 154 158 159 158 158 161 165 165 164 164 165 166 167 168 171 173 172 170 171 174 176 176 177 179 179 176 173 173 174 176 178 179 179 179 178 178 179 179 180 184 186 187 187 185 183 184 185 185 184 183
166 217 225 201 153 144 177 209 263 209 147 187 220 230 244 257 252 252 265 253 257 302 292 251 250 280 301 328 318 240 182 175 179 169 154 150 152 156 157 159 161 165 167 166 164 166 168 168 170 171 171 172 171 171 172 173 174 174 175 176 177 175 174 174 175 176 177 178 178 176 176 178 179 179 181 185 188 188 187 185 183 183 184 185 185 184
67 296 259 235 210 228 217 221 242 228 172 188 208 236 266 266 268 267 254 245 260 307 283 276 298 282 270 293 310 272 214 178 168 160 153 150 153 156 157 159 164 166 166 166 166 167 169 169 170 171 171 170 170 170 171 172 173 173 173 174 175 174 174 174 175 176 176 176 176 175 175 178 179 179 181 186 189 189 187 185 184 184 184 185 187 187
116 226 257 279 301 275 239 218 221 212 195 178 163 195 253 269 281 271 252 257 276 269 256 282 323 301 262 281 295 269 237 191 169 158 152 150 151 153 154 158 163 165 165 168 170 170 170 169 168 169 170 169 168 168 168 169 170 172 173 174 173 172 173 174 175 175 175 175 175 175 175 176 178 180 182 186 188 189 187 184 183 184 185 186 188 188
122 226 260 311 308 287 256 215 208 204 197 157 147 200 234 259 267 258 262 278 289 283 272 289 316 295 262 271 284 274 244 185 158 147 144 146 148 150 154 158 162 167 169 171 173 172 171 169 168 168 167 167 168 168 167 168 170 171 172 173 172 171 172 174 173 173 173 174 175 175 175 175 177 180 183 186 188 188 186 185 184 185 186 186 187 186
99 279 286 14 329 292 286 274 228 190 148 116 172 224 238 276 284 283 289 294 303 296 285 296 319 300 277 283 292 285 163 132 130 138 143 147 150 152 156 162 165 169 174 174 172 171 171 170 168 166 166 169 171 171 169 169 170 170 171 172 171 172 173 173 172 171 173 174 174 173 173 174 176 179 182 185 187 187 185 185 185 185 186 186 185 185
57 321 314 39 25 288 305 349 332 111 89 57 272 248 247 270 277 282 286 291 297 279 287 323 338 292 294 310 314 337 121 132 138 145 149 151 154 156 159 166 170 172 174 174 171 170 169 169 169 169 170 171 171 171 170 168 168 169 171 171 171 171 172 172 171 171 172 173 172 171 171 172 175 177 180 183 185 185 184 184 184 184 185 184 184 185
131 100 343 38 30 272 304 346 353 71 64 355 263 224 207 226 259 291 290 271 221 226 254 31 225 259 291 311 327 31 97 132 141 147 154 155 158 160 163 168 172 174 174 171 170 171 170 171 172 173 173 172 171 172 171 169 169 170 170 169 169 169 169 170 170 170 171 171 171 170 170 171 173 176 179 182 183 183 183 183 183 183 184 185 186 187
138 108 80 16 47 282 311 336 19 76 77 248 238 191 177 214 259 262 262 256 226 203 228 245 259 286 308 313 352 64 84 119 120 111 141 156 162 165 168 171 173 174 175 173 172 172 171 172 172 172 172 172 171 170 169 169 169 168 166 165 166 167 166 167 169 169 169 170 170 169 169 171 173 176 178 180 181 181 182 183 183 184 185 186 187 188
117 104 90 22 58 297 318 358 70 127 217 245 264 222 180 224 248 243 269 279 261 224 243 283 306 302 294 303 360 80 84 82 82 68 73 139 164 166 166 171 173 171 173 174 172 171 170 167 165 167 169 170 168 166 166 167 166 164 163 163 164 165 165 166 168 167 166 168 169 169 170 171 173 175 177 178 180 181 183 184 184 185 186 187 188 189
124 111 84 46 340 327 348 20 92 228 262 291 302 285 222 242 249 332 322 299 274 242 175 325 297 284 282 305 333 90 114 89 76 56 48 91 147 166 168 169 171 174 175 174 173 171 170 169 168 167 166 165 165 165 165 165 163 160 160 162 163 165 166 167 168 167 166 167 168 169 171 172 173 174 176 178 180 181 183 185 185 186 187 188 189 190
119 119 86 33 351 18 6 332 284 278 317 327 299 300 320 241 187 131 212 280 279 265 170 192 262 266 264 285 307 350 80 83 67 29 13 74 115 151 171 173 174 177 177 176 176 173 170 169 167 164 162 160 162 164 164 163 161 157 158 161 164 167 168 168 167 167 167 168 170 172 173 174 174 175 176 179 182 183 185 187 187 187 187 187 188 191
113 134 132 106 10 55 36 329 336 4 330 265 268 310 346 315 302 185 187 256 279 250 223 213 226 235 221 212 239 1 41 77 89 13 325 351 118 138 156 173 176 180 180 172 164 159 158 160 160 159 158 157 159 162 162 161 160 157 157 162 166 168 169 168 167 166 167 170 172 174 175 177 177 177 178 181 184 186 187 188 188 188 187 187 188 191
59 54 115 117 105 90 87 338 349 215 243 259 300 316 325 323 320 287 180 250 261 236 234 217 202 202 205 196 170 90 72 96 160 259 304 315 303 159 162 171 168 173 181 170 158 151 152 154 154 154 155 155 158 162 161 160 160 159 160 166 169 169 169 168 167 167 170 173 175 177 178 179 179 179 182 185 188 189 189 188 188 188 187 187 188 190
36 6 85 131 150 126 124 230 260 238 259 303 319 315 312 315 334 107 165 243 255 258 264 223 187 184 203 207 155 91 96 144 209 263 317 340 342 358 11 198 185 177 178 172 160 152 150 149 149 151 156 158 160 162 161 161 161 161 164 167 169 169 169 169 169 171 174 176 177 179 180 180 181 184 186 189 190 190 189 188 187 186 186 187 188 188
5 311 270 194 167 140 141 178 282 261 271 323 324 314 312 321 66 139 194 240 271 286 279 197 151 145 152 149 77 82 87 147 166 125 29 35 30 25 23 16 67 160 159 156 150 146 147 150 153 156 160 161 160 160 161 161 160 161 164 167 169 169 169 170 172 173 176 178 178 180 181 182 185 188 189 190 191 189 188 188 187 185 186 186 186 185
349 316 310 273 203 163 152 150 305 268 273 342 331 319 323 18 151 206 261 283 289 286 286 93 89 94 85 67 78 117 132 124 106 82 67 65 60 52 48 42 36 49 93 136 147 148 149 151 152 154 156 158 159 159 160 161 160 161 164 167 169 169 169 171 174 175 176 177 178 179 182 185 187 189 189 189 189 188 187 187 186 185 186 185 183 180
333 318 314 290 263 110 102 81 28 259 287 341 340 334 0 34 242 269 304 304 295 297 49 73 69 96 105 96 102 120 118 106 92 82 79 79 79 78 79 78 70 63 67 80 105 131 144 149 150 151 153 155 157 159 161 161 160 160 163 166 168 168 169 171 174 175 175 175 177 180 183 186 188 188 188 188 188 187 186 185 185 184 184 183 180 178
356 343 299 295 308 35 67 122 156 243 278 321 338 324 326 318 285 285 313 307 301 320 21 60 59 81 111 119 122 112 99 96 99 101 98 94 92 89 87 93 97 93 85 71 60 64 83 104 123 138 149 154 157 161 164 163 160 159 163 168 170 170 171 173 173 173 173 174 176 180 184 187 188 187 186 187 187 185 184 184 184 183 184 183 180 179
310 203 205 256 279 246 213 219 231 274 282 285 263 253 291 310 300 295 332 331 304 304 341 83 93 98 113 116 105 89 88 90 95 105 111 114 110 98 83 78 83 91 96 94 92 97 104 104 102 115 149 158 160 164 167 166 163 162 164 169 171 171 172 172 172 171 172 173 177 179 182 185 185 185 186 186 186 185 183 182 182 182 183 184 183 182
273 205 175 224 289 284 255 250 270 300 302 303 301 281 301 332 316 306 351 5 319 302 323 96 119 116 110 109 98 86 89 97 90 87 103 116 114 108 106 102 99 106 115 121 128 136 140 136 128 129 165 168 162 165 169 167 166 165 164 167 170 171 171 170 170 170 171 173 177 179 180 180 180 183 185 186 186 187 186 184 183 181 182 183 185 185
303 245 193 236 320 322 292 287 310 318 311 315 325 324 349 7 332 310 359 14 324 303 325 74 92 90 85 96 105 104 107 109 104 97 104 114 114 117 120 120 121 129 137 139 138 140 142 140 136 143 163 171 164 164 165 164 165 165 163 165 168 170 170 169 169 169 169 171 175 177 177 177 177 180 183 184 186 188 188 188 186 184 183 186 187 187
326 316 286 286 327 303 272 295 320 319 301 304 324 333 356 4 326 314 7 16 323 298 323 61 68 85 92 93 102 106 100 94 101 109 115 115 114 115 117 119 122 123 128 136 142 145 147 147 147 150 153 154 157 161 161 161 163 164 163 163 166 168 168 167 167 166 166 169 173 174 176 177 178 178 180 183 186 187 187 188 189 189 191 193 192 190
312 319 314 336 341 316 296 315 330 327 322 336 346 346 353 348 323 342 18 7 312 302 356 53 58 68 86 94 101 103 95 82 91 110 116 114 109 108 116 123 123 122 127 139 147 150 148 144 143 142 141 143 152 156 154 154 158 161 162 163 165 166 164 164 164 164 165 168 171 173 176 178 180 180 181 183 185 188 190 191 193 196 199 201 201 201
326 316 345 32 7 319 298 316 330 338 333 332 335 344 355 350 347 17 27 355 311 325 16 50 59 57 61 72 87 96 96 86 80 97 106 104 100 108 121 125 120 124 140 153 156 152 146 139 135 132 133 141 150 153 153 155 158 161 163 165 167 167 164 162 162 162 164 168 170 173 176 179 181 182 182 182 183 185 188 192 197 200 203 205 207 209
339 315 356 45 307 262 282 313 339 12 323 297 311 334 356 357 354 10 11 330 337 16 31 47 56 54 53 57 63 79 90 84 79 93 98 89 87 103 120 131 132 135 146 156 157 150 141 137 134 133 137 144 149 150 153 157 159 162 167 170 172 172 169 166 164 164 167 171 174 177 180 181 182 183 183 183 183 183 185 188 194 200 205 209 210 210